Total_Precipitation_Accumulation
0.00 0.00 0.00 0.00 0.00 0.00 0.00 0.00 0.02 0.04 0.03 0.05 0.10 0.16 0.26 0.25 0.31 0.38 0.33 0.45 0.52 0.57 0.80 1.11 1.62 2.33 2.60 3.06 2.92 2.49 2.26 2.22 2.16 2.17 2.22 2.31 2.53 2.75 2.95 3.06 2.93 2.86 2.79 2.79
0.00 0.00 0.00 0.00 0.00 0.00 0.00 0.01 0.02 0.03 0.04 0.04 0.13 0.21 0.30 0.37 0.44 0.46 0.44 0.53 0.54 0.60 0.94 1.31 1.75 2.16 2.36 2.48 2.57 2.72 2.69 2.64 2.54 2.63 2.93 3.36 3.62 3.68 3.79 3.76 3.69 3.57 3.48 3.42
0.00 0.00 0.00 0.00 0.00 0.00 0.00 0.01 0.02 0.03 0.05 0.09 0.18 0.32 0.35 0.45 0.55 0.48 0.41 0.49 0.57 0.65 0.90 1.16 1.53 1.80 2.16 2.52 2.66 2.85 2.94 3.06 3.23 3.43 3.64 4.09 4.42 4.46 4.33 3.98 3.81 3.63 3.39 3.25
0.00 0.00 0.00 0.00 0.00 0.00 0.00 0.01 0.03 0.03 0.04 0.10 0.15 0.36 0.49 0.58 0.60 0.58 0.53 0.55 0.67 0.76 0.89 1.03 1.24 1.41 1.68 2.04 2.33 2.58 2.81 3.10 3.51 4.06 4.36 4.46 4.64 4.64 4.51 4.18 3.82 3.46 3.16 2.94
0.00 0.00 0.00 0.00 0.00 0.00 0.01 0.01 0.01 0.02 0.03 0.10 0.15 0.28 0.63 0.73 0.66 0.65 0.58 0.61 0.75 0.74 0.84 0.94 0.94 1.05 1.31 1.59 1.81 2.14 2.54 2.95 3.50 3.98 4.41 4.64 4.65 4.48 4.29 3.88 3.49 3.18 2.93 2.67
0.00 0.00 0.00 0.00 0.00 0.00 0.00 0.00 0.01 0.03 0.06 0.13 0.14 0.24 0.58 0.77 0.73 0.67 0.59 0.68 0.86 0.79 0.71 0.77 0.80 0.85 1.03 1.26 1.51 1.76 2.16 2.73 3.14 3.56 4.01 4.18 4.22 4.10 3.88 3.50 3.17 2.91 2.70 2.47
0.02 0.01 0.01 0.01 0.00 0.00 0.00 0.01 0.07 0.13 0.15 0.16 0.13 0.28 0.66 0.82 0.85 0.83 0.79 0.87 0.89 0.74 0.64 0.72 0.72 0.82 1.02 1.23 1.48 1.75 2.09 2.49 2.70 2.84 3.08 3.32 3.39 3.35 3.30 3.14 2.87 2.58 2.30 1.99
0.07 0.06 0.02 0.01 0.01 0.01 0.01 0.02 0.10 0.21 0.22 0.23 0.27 0.55 0.93 0.95 0.91 0.95 0.89 0.82 0.78 0.75 0.72 0.73 0.79 0.87 1.05 1.16 1.30 1.49 1.69 1.96 2.10 2.12 2.27 2.48 2.59 2.62 2.59 2.42 2.17 1.94 1.74 1.53
0.09 0.08 0.02 0.01 0.01 0.01 0.01 0.01 0.04 0.08 0.11 0.23 0.50 0.84 1.10 1.12 1.15 1.16 1.05 0.86 0.72 0.72 0.75 0.78 0.80 0.91 1.09 1.12 1.18 1.23 1.23 1.34 1.45 1.52 1.58 1.63 1.67 1.71 1.70 1.61 1.48 1.40 1.28 1.15
0.05 0.06 0.04 0.02 0.02 0.02 0.02 0.02 0.03 0.07 0.19 0.30 0.49 0.86 1.29 1.36 1.27 1.24 1.15 0.96 0.81 0.76 0.75 0.79 0.79 0.79 0.86 0.90 0.95 0.97 0.89 0.95 1.03 1.02 1.01 1.06 1.14 1.24 1.21 1.08 1.04 1.01 0.96 0.88
0.03 0.05 0.04 0.04 0.03 0.03 0.03 0.03 0.04 0.08 0.13 0.25 0.50 0.93 1.19 1.37 1.37 1.27 1.18 1.03 0.82 0.77 0.77 0.73 0.71 0.64 0.60 0.60 0.66 0.73 0.69 0.69 0.71 0.73 0.77 0.77 0.81 0.86 0.89 0.85 0.80 0.76 0.71 0.67
0.03 0.07 0.10 0.09 0.06 0.04 0.05 0.05 0.05 0.11 0.15 0.20 0.43 0.91 1.07 1.32 1.47 1.47 1.23 1.05 0.97 0.86 0.80 0.73 0.69 0.64 0.59 0.56 0.55 0.55 0.59 0.63 0.63 0.60 0.62 0.63 0.63 0.63 0.65 0.69 0.69 0.64 0.62 0.60
0.05 0.13 0.27 0.30 0.22 0.10 0.08 0.07 0.07 0.09 0.17 0.24 0.45 0.99 1.14 1.30 1.45 1.43 1.27 1.17 1.14 1.06 0.96 0.86 0.76 0.71 0.67 0.62 0.57 0.53 0.56 0.59 0.57 0.52 0.53 0.53 0.54 0.54 0.54 0.55 0.54 0.53 0.52 0.53
0.05 0.14 0.34 0.56 0.47 0.23 0.14 0.11 0.13 0.14 0.24 0.29 0.47 0.85 1.06 1.24 1.43 1.46 1.38 1.22 1.16 1.17 1.07 0.94 0.85 0.78 0.72 0.69 0.64 0.61 0.58 0.56 0.54 0.52 0.51 0.50 0.53 0.53 0.51 0.49 0.47 0.46 0.45 0.47
0.08 0.18 0.21 0.25 0.25 0.22 0.17 0.15 0.16 0.19 0.24 0.38 0.57 0.81 1.05 1.28 1.43 1.57 1.59 1.46 1.30 1.23 1.12 1.00 0.98 0.94 0.83 0.80 0.75 0.69 0.63 0.58 0.53 0.51 0.51 0.55 0.57 0.57 0.56 0.55 0.52 0.50 0.48 0.44
0.09 0.17 0.21 0.24 0.22 0.24 0.22 0.19 0.17 0.23 0.29 0.43 0.65 0.97 1.21 1.35 1.41 1.51 1.53 1.44 1.37 1.34 1.31 1.29 1.30 1.27 1.10 0.95 0.86 0.76 0.68 0.65 0.60 0.61 0.62 0.61 0.60 0.57 0.56 0.55 0.54 0.55 0.52 0.47
0.09 0.15 0.24 0.27 0.19 0.30 0.46 0.35 0.29 0.35 0.41 0.54 0.77 0.95 1.11 1.25 1.40 1.41 1.39 1.44 1.48 1.57 1.62 1.60 1.49 1.37 1.21 1.08 1.00 0.91 0.82 0.78 0.76 0.74 0.69 0.62 0.56 0.55 0.53 0.49 0.51 0.51 0.48 0.44
0.12 0.20 0.28 0.34 0.35 0.62 0.60 0.36 0.36 0.49 0.59 0.61 0.68 0.75 0.93 1.14 1.24 1.25 1.29 1.42 1.52 1.56 1.53 1.47 1.34 1.22 1.14 1.11 1.06 0.96 0.87 0.84 0.79 0.74 0.67 0.57 0.50 0.50 0.51 0.52 0.51 0.46 0.42 0.41
0.08 0.20 0.34 0.42 0.58 0.69 0.70 0.45 0.41 0.58 0.75 0.61 0.66 0.70 0.82 0.91 1.04 1.26 1.33 1.40 1.48 1.44 1.38 1.37 1.34 1.25 1.21 1.17 1.06 0.98 0.92 0.83 0.77 0.71 0.58 0.47 0.41 0.43 0.45 0.45 0.45 0.43 0.41 0.41
0.11 0.19 0.40 0.55 0.70 0.83 0.79 0.42 0.33 0.56 1.02 0.76 0.74 0.75 0.78 0.85 1.10 1.20 1.20 1.16 1.19 1.21 1.26 1.33 1.41 1.43 1.36 1.22 1.00 0.90 0.83 0.73 0.64 0.52 0.43 0.38 0.35 0.33 0.32 0.34 0.37 0.38 0.39 0.37
0.33 0.37 0.49 0.69 0.89 0.95 0.50 0.26 0.38 0.82 1.00 0.83 0.80 0.81 0.81 0.90 0.98 0.87 0.88 0.99 1.07 1.13 1.20 1.24 1.28 1.28 1.20 1.07 0.92 0.85 0.76 0.64 0.48 0.36 0.31 0.31 0.27 0.24 0.24 0.29 0.34 0.35 0.33 0.32
0.53 0.63 0.69 0.78 0.96 1.03 0.46 0.32 0.53 0.65 0.56 0.54 0.57 0.62 0.65 0.69 0.73 0.78 0.80 0.87 0.93 1.03 1.08 1.07 1.03 0.99 0.91 0.81 0.76 0.77 0.69 0.49 0.34 0.29 0.26 0.24 0.21 0.15 0.17 0.26 0.29 0.28 0.31 0.30
0.50 0.58 0.73 0.89 1.01 0.74 0.42 0.39 0.39 0.44 0.44 0.42 0.48 0.51 0.52 0.57 0.63 0.74 0.85 0.90 0.90 0.86 0.87 0.83 0.73 0.68 0.65 0.60 0.61 0.60 0.50 0.36 0.30 0.28 0.28 0.26 0.21 0.19 0.17 0.21 0.24 0.24 0.26 0.23
0.65 0.48 0.59 0.77 0.85 0.61 0.41 0.34 0.34 0.33 0.32 0.36 0.44 0.47 0.46 0.47 0.48 0.57 0.66 0.73 0.75 0.71 0.65 0.58 0.51 0.48 0.47 0.42 0.40 0.37 0.31 0.29 0.31 0.33 0.31 0.30 0.29 0.24 0.18 0.17 0.15 0.15 0.18 0.19
0.62 0.62 0.73 0.86 0.87 0.69 0.54 0.40 0.32 0.32 0.32 0.37 0.43 0.41 0.38 0.35 0.35 0.37 0.44 0.49 0.50 0.47 0.43 0.39 0.37 0.34 0.29 0.26 0.24 0.23 0.23 0.24 0.31 0.30 0.24 0.22 0.21 0.20 0.20 0.16 0.09 0.08 0.10 0.08
0.51 0.59 0.80 0.95 0.79 0.66 0.59 0.47 0.37 0.35 0.32 0.30 0.27 0.27 0.32 0.32 0.31 0.33 0.36 0.38 0.37 0.33 0.30 0.30 0.30 0.27 0.24 0.21 0.18 0.15 0.13 0.16 0.25 0.25 0.21 0.15 0.12 0.12 0.13 0.17 0.14 0.05 0.03 0.03